Weather History for Bratislava, Slovakia

Change the Weather History Date:

Friday, April 19, 2013

  Actual Average Record
Temperature  
Mean Temperature 59 °F -  
Max Temperature 68 °F 65 °F 71 °F (2009)
Min Temperature 50 °F 46 °F 39 °F (1999)
Degree Days  
Heating Degree Days 6    
Growing Degree Days 9 (Base 50)    
Moisture  
Dew Point 51 °F    
Average Humidity 73    
Maximum Humidity 88    
Minimum Humidity 45    
Precipitation  
Precipitation 0.00 in - - ()
Sea Level Pressure  
Sea Level Pressure 30.07 in    
Wind  
Wind Speed 5 mph ()    
Max Wind Speed 17 mph    
Max Gust Speed -    
Visibility 7.8 miles    
Events      
Averages and records for this station are not official NWS values.
T = Trace of Precipitation, MM = Missing Value Source: Averaged Metar Reports

Daily Weather History Graph

Daily Weather History Graph

Search for Another Location

Airport:

Trip Planner

Search our weather history database for the weather conditions in past years. The results will help you decide how hot, cold, wet, or windy it might be!

Date:

Astronomy

Apr. 19, 2013 Rise Set
Actual Time 5:53 AM CEST 7:47 PM CEST
Civil Twilight 5:20 AM CEST 8:20 PM CEST
Nautical Twilight 4:39 AM CEST 9:01 PM CEST
Astronomical Twilight 3:54 AM CEST 9:47 PM CEST
Moon 12:45 PM CEST (4/19) 2:29 AM CEST (4/19)
Length of Visible Light 15h 00m
Length of Day
13h 53m
First Quarter, 59% of the Moon is Illuminated
Apr 19
First Quarter
Apr 25
Full
May 2
Last Quarter
May 10
New
May 18
First Quarter

Hourly Weather History & Observations

Time (CEST) Temp. Dew Point Humidity Pressure Visibility Wind Dir Wind Speed Gust Speed Precip Events Conditions
12:00 AM 58 °F 48 °F 60% 30.07 in 12 mi Calm Calm - -   Clear
12:00 AM 57.2 °F 48.2 °F 72% 30.06 in - Calm Calm - N/A   Clear
12:30 AM 57.2 °F 48.2 °F 72% 30.06 in - NE 3.5 mph - N/A   Clear
1:00 AM 56 °F 48 °F 67% 30.08 in 12 mi 2.2 mph - -   Clear
1:00 AM 55.4 °F 46.4 °F 72% 30.06 in - NNE 3.5 mph - N/A   Clear
1:30 AM 53.6 °F 48.2 °F 82% 30.06 in - NE 3.5 mph - N/A   Clear
2:00 AM 54 °F 47 °F 70% 30.07 in 12 mi NNE 4.5 mph - -   Clear
2:00 AM 53.6 °F 48.2 °F 82% 30.06 in - NNE 3.5 mph - N/A   Clear
2:30 AM 51.8 °F 46.4 °F 82% 30.06 in - ENE 5.8 mph - N/A   Clear
3:00 AM 53 °F 47 °F 74% 30.07 in 12 mi NE 4.5 mph - -   Clear
3:00 AM 51.8 °F 46.4 °F 82% 30.04 in - NE 5.8 mph - N/A   Clear
3:30 AM 51.8 °F 46.4 °F 82% 30.04 in - NE 3.5 mph - N/A   Clear
4:00 AM 53 °F 47 °F 73% 30.06 in 12 mi 4.5 mph - -   Clear
4:00 AM 51.8 °F 46.4 °F 82% 30.04 in - NE 3.5 mph - N/A   Clear
4:30 AM 51.8 °F 46.4 °F 82% 30.04 in - ENE 4.6 mph - N/A   Clear
5:00 AM 51 °F 46 °F 75% 30.06 in 12 mi NE 4.5 mph - -   Clear
5:00 AM 51.8 °F 44.6 °F 76% 30.04 in - NE 4.6 mph - N/A   Clear
5:30 AM 50.0 °F 44.6 °F 82% 30.04 in - ENE 5.8 mph - N/A   Clear
6:00 AM 51 °F 45 °F 73% 30.07 in 16 mi NNE 2.2 mph - -   Scattered Clouds
6:00 AM 50.0 °F 44.6 °F 82% 30.06 in - NNE 2.3 mph - N/A   Clear
6:30 AM 51.8 °F 44.6 °F 76% 30.06 in - NNE 3.5 mph - N/A   Clear
7:00 AM 52 °F 45 °F 68% 30.09 in 12 mi Calm Calm - -   Partly Cloudy
7:00 AM 51.8 °F 44.6 °F 76% 30.06 in - Calm Calm - N/A   Clear
7:30 AM 53.6 °F 44.6 °F 72% 30.06 in - Calm Calm - N/A   Clear
8:00 AM 56 °F 47 °F 62% 30.10 in 12 mi NE 4.5 mph - -   Scattered Clouds
8:00 AM 55.4 °F 46.4 °F 72% 30.09 in 6.2 mi NE 4.6 mph - N/A   Partly Cloudy
8:30 AM 59.0 °F 42.8 °F 55% 30.09 in 6.2 mi ENE 3.5 mph - N/A   Partly Cloudy
9:00 AM 62 °F 47 °F 46% 30.10 in 12 mi 2.2 mph - -   Partly Cloudy
9:00 AM 60.8 °F 44.6 °F 55% 30.09 in 6.2 mi Variable 2.3 mph - N/A   Scattered Clouds
9:30 AM 60.8 °F 46.4 °F 59% 30.09 in 6.2 mi Variable 1.2 mph - N/A   Scattered Clouds
10:00 AM 63 °F 47 °F 45% 30.10 in 12 mi Calm Calm - -   Partly Cloudy
10:00 AM 62.6 °F 48.2 °F 59% 30.09 in 6.2 mi Calm Calm - N/A   Scattered Clouds
10:30 AM 66.2 °F 50.0 °F 56% 30.09 in 6.2 mi Variable 1.2 mph - N/A   Scattered Clouds
11:00 AM 67 °F 54 °F 54% 30.09 in 12 mi 4.5 mph - -   Mostly Cloudy
11:00 AM 68.0 °F 55.4 °F 64% 30.09 in 6.2 mi Variable 1.2 mph - N/A   Mostly Cloudy
11:30 AM 66.2 °F 55.4 °F 68% 30.09 in 6.2 mi NW 5.8 mph - N/A   Mostly Cloudy
12:00 PM 66 °F 56 °F 61% 30.10 in 9 mi NW 4.5 mph - -   Mostly Cloudy
12:00 PM 66.2 °F 55.4 °F 68% 30.09 in 6.2 mi NW 4.6 mph - N/A   Mostly Cloudy
12:30 PM 66.2 °F 55.4 °F 68% 30.09 in 6.2 mi WNW 10.4 mph - N/A   Mostly Cloudy
1:00 PM 66 °F 56 °F 62% 30.09 in 9 mi NW 11.2 mph - -   Mostly Cloudy
1:00 PM 66.2 °F 57.2 °F 73% 30.09 in 6.2 mi NW 9.2 mph - N/A   Mostly Cloudy
1:30 PM 66.2 °F 55.4 °F 68% 30.06 in 6.2 mi NW 12.7 mph - N/A   Mostly Cloudy
2:00 PM 65 °F 55 °F 62% 30.08 in 7 mi NW 11.2 mph - -   Mostly Cloudy
2:00 PM 66.2 °F 55.4 °F 68% 30.06 in 6.2 mi NNW 12.7 mph - N/A   Mostly Cloudy
2:30 PM 66.2 °F 55.4 °F 68% 30.06 in 6.2 mi NW 11.5 mph - N/A   Scattered Clouds
3:00 PM 66 °F 55 °F 58% 30.06 in 7 mi NW 15.7 mph - -   Partly Cloudy
3:00 PM 68.0 °F 55.4 °F 64% 30.06 in 6.2 mi NW 13.8 mph - N/A   Mostly Cloudy
3:30 PM 64.4 °F 55.4 °F 73% 30.06 in 6.2 mi NW 12.7 mph - N/A   Mostly Cloudy
4:00 PM 63 °F 55 °F 69% 30.07 in 7 mi NW 15.7 mph - -   Mostly Cloudy
4:00 PM 62.6 °F 55.4 °F 77% 30.06 in 6.2 mi NW 16.1 mph - N/A   Mostly Cloudy
4:30 PM 62.6 °F 55.4 °F 77% 30.06 in 6.2 mi NW 17.3 mph - N/A   Mostly Cloudy
5:00 PM 62 °F 55 °F 73% 30.06 in 7 mi NW 15.7 mph - -   Mostly Cloudy
5:00 PM 62.6 °F 55.4 °F 77% 30.06 in 6.2 mi NW 15.0 mph - N/A   Mostly Cloudy
5:30 PM 60.8 °F 55.4 °F 82% 30.06 in 6.2 mi NW 15.0 mph - N/A   Mostly Cloudy
6:00 PM 61 °F 55 °F 73% 30.07 in 7 mi NNW 13.4 mph - -   Partly Cloudy
6:00 PM 60.8 °F 55.4 °F 82% 30.06 in 6.2 mi NNW 12.7 mph - N/A   Mostly Cloudy
6:30 PM 60.8 °F 53.6 °F 77% 30.06 in 6.2 mi NNW 15.0 mph - N/A   Mostly Cloudy
7:00 PM 60 °F 54 °F 75% 30.06 in 7 mi NNW 11.2 mph - -   Scattered Clouds
7:00 PM 60.8 °F 53.6 °F 77% 30.06 in 6.2 mi NNW 11.5 mph - N/A   Mostly Cloudy
7:30 PM 59.0 °F 53.6 °F 82% 30.06 in 6.2 mi NW 9.2 mph - N/A   Scattered Clouds
8:00 PM 58 °F 53 °F 79% 30.07 in 7 mi NNW 11.2 mph - -   Scattered Clouds
8:00 PM 59.0 °F 53.6 °F 82% 30.06 in 6.2 mi NNW 10.4 mph - N/A   Scattered Clouds
8:30 PM 57.2 °F 53.6 °F 88% 30.06 in 6.2 mi NNW 8.1 mph - N/A   Scattered Clouds
9:00 PM 57 °F 53 °F 84% 30.08 in 7 mi NW 11.2 mph - -   Scattered Clouds
9:00 PM 57.2 °F 53.6 °F 88% 30.06 in 6.2 mi NNW 11.5 mph - N/A   Partly Cloudy
9:30 PM 57.2 °F 53.6 °F 88% 30.06 in 6.2 mi NNW 13.8 mph - N/A   Partly Cloudy
10:00 PM 56 °F 53 °F 86% 30.07 in 9 mi NW 8.9 mph - -   Scattered Clouds
10:00 PM 57.2 °F 53.6 °F 88% 30.06 in 6.2 mi NNW 9.2 mph - N/A   Partly Cloudy
10:30 PM 55.4 °F 51.8 °F 88% 30.06 in 6.2 mi NNW 10.4 mph - N/A   Scattered Clouds
11:00 PM 56 °F 51 °F 77% 30.07 in 9 mi NW 8.9 mph - -   Scattered Clouds
11:00 PM 55.4 °F 51.8 °F 88% 30.06 in 6.2 mi NNW 9.2 mph - N/A   Scattered Clouds
11:30 PM 55.4 °F 50.0 °F 82% 30.06 in 6.2 mi NNW 10.4 mph - N/A   Scattered Clouds